LETAL30 SESA-SESA

Flight info

Callsign LETAL30
Flight time 0h 17m
Altitude 4000
Route SESA ANCONCITO SESA
Aircraft DA20/L-SG/1200

Departure

Time 2026-05-05 20:28
Airport General Ulpiano Paez International Airport (SESA)

Arrival

Time 2026-05-05 20:45
Airport General Ulpiano Paez International Airport (SESA)
Time Latitude Longitude Altitude Speed Heading
2026-05-05 20:16 -2.20266 -80.99232 21 ft 0 kts 351°
2026-05-05 20:24 -2.20254 -80.99236 21 ft 8 kts 331°
2026-05-05 20:24 -2.20250 -80.99298 21 ft 9 kts 233°
2026-05-05 20:25 -2.20267 -80.99334 21 ft 5 kts 229°
2026-05-05 20:25 -2.20310 -80.99330 21 ft 0 kts 154°
2026-05-05 20:25 -2.20342 -80.99307 21 ft 6 kts 141°
2026-05-05 20:25 -2.20358 -80.99286 21 ft 0 kts 123°
2026-05-05 20:26 -2.20359 -80.99284 21 ft 1 kts 125°
2026-05-05 20:26 -2.20366 -80.99276 21 ft 4 kts 136°
2026-05-05 20:26 -2.20488 -80.99143 21 ft 53 kts 133°
2026-05-05 20:26 -2.20698 -80.98879 108 ft 65 kts 136°
2026-05-05 20:27 -2.20777 -80.98782 175 ft 63 kts 132°
2026-05-05 20:27 -2.21073 -80.98405 303 ft 74 kts 129°
2026-05-05 20:27 -2.21335 -80.97987 493 ft 73 kts 127°
2026-05-05 20:28 -2.21589 -80.97576 684 ft 70 kts 132°
2026-05-05 20:28 -2.21982 -80.97313 883 ft 62 kts 147°
2026-05-05 20:28 -2.22203 -80.96890 999 ft 74 kts 96°
2026-05-05 20:28 -2.22062 -80.96536 1107 ft 79 kts 47°
2026-05-05 20:29 -2.21825 -80.96324 1242 ft 73 kts 31°
2026-05-05 20:29 -2.21350 -80.96270 1395 ft 70 kts 332°
2026-05-05 20:29 -2.21038 -80.96599 1573 ft 66 kts 307°
2026-05-05 20:30 -2.20709 -80.96912 1761 ft 62 kts 298°
2026-05-05 20:30 -2.20876 -80.97258 1789 ft 89 kts 185°
2026-05-05 20:30 -2.21413 -80.97127 2009 ft 84 kts 167°
2026-05-05 20:30 -2.21927 -80.97034 2255 ft 51 kts 176°
2026-05-05 20:31 -2.22392 -80.96925 2222 ft 70 kts 148°
2026-05-05 20:31 -2.22695 -80.96564 2186 ft 86 kts 140°
2026-05-05 20:31 -2.23053 -80.96521 2332 ft 57 kts 223°
2026-05-05 20:31 -2.23397 -80.96867 2312 ft 82 kts 172°
2026-05-05 20:32 -2.23833 -80.96457 2503 ft 73 kts 138°
2026-05-05 20:32 -2.24192 -80.96140 2699 ft 70 kts 127°
2026-05-05 20:32 -2.24543 -80.95777 2878 ft 70 kts 137°
2026-05-05 20:32 -2.24873 -80.95408 2969 ft 80 kts 131°
2026-05-05 20:33 -2.25310 -80.95007 2994 ft 87 kts 140°
2026-05-05 20:33 -2.25797 -80.94600 3000 ft 94 kts 142°
2026-05-05 20:33 -2.26352 -80.94210 3002 ft 98 kts 146°
2026-05-05 20:33 -2.26939 -80.93836 3013 ft 99 kts 148°
2026-05-05 20:34 -2.27535 -80.93471 2974 ft 105 kts 148°
2026-05-05 20:34 -2.28140 -80.93044 2953 ft 104 kts 144°
2026-05-05 20:34 -2.28734 -80.92622 2957 ft 103 kts 144°
2026-05-05 20:34 -2.29353 -80.92219 2925 ft 106 kts 152°
2026-05-05 20:35 -2.29982 -80.91854 2931 ft 104 kts 146°
2026-05-05 20:35 -2.30633 -80.91509 2886 ft 106 kts 154°
2026-05-05 20:35 -2.31261 -80.91151 2934 ft 103 kts 148°
2026-05-05 20:35 -2.31876 -80.90771 2974 ft 101 kts 145°
2026-05-05 20:36 -2.32267 -80.90238 3034 ft 100 kts 82°
2026-05-05 20:36 -2.31754 -80.89861 2951 ft 107 kts 355°
2026-05-05 20:36 -2.30988 -80.90141 2771 ft 112 kts 329°
2026-05-05 20:36 -2.30379 -80.90635 2456 ft 120 kts 327°
2026-05-05 20:37 -2.29520 -80.90864 1657 ft 136 kts 345°
2026-05-05 20:37 -2.28936 -80.91018 1274 ft 132 kts 341°
2026-05-05 20:37 -2.27917 -80.91455 916 ft 112 kts 331°
2026-05-05 20:37 -2.27287 -80.91846 986 ft 108 kts 322°
2026-05-05 20:38 -2.26676 -80.92273 991 ft 103 kts 320°
2026-05-05 20:38 -2.26122 -80.92695 965 ft 101 kts 319°
2026-05-05 20:38 -2.25572 -80.93149 994 ft 98 kts 313°
2026-05-05 20:38 -2.25089 -80.93615 1062 ft 96 kts 313°
2026-05-05 20:39 -2.24609 -80.94119 1025 ft 102 kts 309°
2026-05-05 20:39 -2.24182 -80.94666 1084 ft 94 kts 304°
2026-05-05 20:39 -2.23787 -80.95159 891 ft 93 kts 309°
2026-05-05 20:39 -2.23352 -80.95627 679 ft 89 kts 308°
2026-05-05 20:40 -2.22961 -80.96066 675 ft 83 kts 305°
2026-05-05 20:40 -2.22594 -80.96550 679 ft 91 kts 301°
2026-05-05 20:40 -2.22195 -80.97008 590 ft 83 kts 319°
2026-05-05 20:40 -2.21811 -80.97430 338 ft 84 kts 306°
2026-05-05 20:41 -2.21523 -80.97842 197 ft 65 kts 306°
2026-05-05 20:41 -2.21249 -80.98195 42 ft 59 kts 307°
2026-05-05 20:41 -2.20993 -80.98470 38 ft 59 kts 317°
2026-05-05 20:41 -2.20709 -80.98814 186 ft 69 kts 313°
2026-05-05 20:42 -2.20368 -80.99199 346 ft 73 kts 307°
2026-05-05 20:42 -2.19989 -80.99556 505 ft 78 kts 307°
2026-05-05 20:42 -2.20080 -81.00030 635 ft 82 kts 220°
2026-05-05 20:42 -2.20636 -80.99947 752 ft 89 kts 143°
2026-05-05 20:43 -2.21173 -80.99519 622 ft 104 kts 162°
2026-05-05 20:43 -2.21788 -80.99258 771 ft 90 kts 156°
2026-05-05 20:43 -2.22263 -80.98772 722 ft 105 kts 126°
2026-05-05 20:43 -2.22616 -80.98167 778 ft 94 kts 118°
2026-05-05 20:44 -2.22925 -80.97615 602 ft 89 kts 115°
2026-05-05 20:44 -2.22737 -80.97147 455 ft 77 kts 23°
2026-05-05 20:44 -2.22238 -80.97123 248 ft 70 kts 331°
2026-05-05 20:44 -2.21896 -80.97422 99 ft 60 kts 304°
2026-05-05 20:45 -2.21456 -80.97957 22 ft 43 kts 317°
2026-05-05 20:45 -2.21192 -80.98274 113 ft 64 kts 311°
2026-05-05 20:45 -2.20831 -80.98653 159 ft 81 kts 308°
2026-05-05 20:46 -2.20463 -80.99065 313 ft 78 kts 304°
2026-05-05 20:46 -2.20069 -80.99478 435 ft 81 kts 320°
2026-05-05 20:46 -2.19757 -80.99886 657 ft 72 kts 264°
2026-05-05 20:46 -2.20233 -81.00004 454 ft 117 kts 139°
2026-05-05 20:47 -2.20805 -80.99482 461 ft 106 kts 156°
2026-05-05 20:47 -2.21350 -80.99143 691 ft 91 kts 151°
2026-05-05 20:47 -2.21906 -80.98734 669 ft 101 kts 143°
2026-05-05 20:47 -2.22338 -80.98178 692 ft 107 kts 120°
2026-05-05 20:48 -2.22691 -80.97533 668 ft 97 kts 130°
2026-05-05 20:48 -2.23050 -80.97017 588 ft 80 kts 120°
2026-05-05 20:48 -2.22844 -80.96722 278 ft 87 kts 331°
2026-05-05 20:48 -2.22468 -80.96932 240 ft 79 kts 328°
2026-05-05 20:49 -2.22417 -80.96959 246 ft 81 kts 326°
2026-05-05 20:49 -2.21959 -80.97328 301 ft 96 kts 312°
2026-05-05 20:49 -2.21505 -80.97810 490 ft 88 kts 307°
2026-05-05 20:50 -2.21129 -80.98309 611 ft 95 kts 307°
2026-05-05 20:50 -2.20824 -80.98616 744 ft 91 kts 315°
2026-05-05 20:50 -2.20157 -80.99062 736 ft 86 kts 328°
2026-05-05 20:50 -2.19676 -80.99387 750 ft 76 kts 300°
2026-05-05 20:51 -2.19940 -80.99805 612 ft 87 kts 194°
2026-05-05 20:51 -2.20488 -80.99652 671 ft 84 kts 163°
2026-05-05 20:51 -2.20976 -80.99302 681 ft 86 kts 135°
2026-05-05 20:51 -2.21235 -80.98743 671 ft 91 kts 106°
2026-05-05 20:52 -2.21461 -80.98182 660 ft 91 kts 139°
2026-05-05 20:52 -2.22000 -80.97889 621 ft 74 kts 162°
2026-05-05 20:52 -2.22428 -80.97663 425 ft 73 kts 151°
2026-05-05 20:52 -2.22567 -80.97240 225 ft 74 kts 50°
2026-05-05 20:53 -2.22140 -80.97322 94 ft 67 kts 317°
2026-05-05 20:53 -2.21746 -80.97602 82 ft 65 kts 306°
2026-05-05 20:53 -2.21486 -80.97912 22 ft 51 kts 303°
2026-05-05 20:53 -2.21321 -80.98111 22 ft 29 kts 313°
2026-05-05 20:54 -2.21195 -80.98264 22 ft 25 kts 298°
2026-05-05 20:54 -2.21156 -80.98494 29 ft 52 kts 262°
2026-05-05 20:54 -2.20868 -80.98732 116 ft 70 kts 331°
2026-05-05 20:54 -2.20537 -80.99066 235 ft 66 kts 306°
2026-05-05 20:55 -2.20222 -80.99398 360 ft 68 kts 308°
2026-05-05 20:55 -2.19855 -80.99730 533 ft 76 kts 334°
2026-05-05 20:55 -2.19519 -80.99361 647 ft 92 kts 93°
2026-05-05 20:55 -2.19515 -80.98731 710 ft 96 kts 85°
2026-05-05 20:56 -2.19369 -80.98078 719 ft 88 kts 71°
2026-05-05 20:56 -2.19166 -80.97572 682 ft 67 kts 68°
2026-05-05 20:56 -2.19236 -80.97102 451 ft 67 kts 140°
2026-05-05 20:56 -2.19631 -80.97134 277 ft 63 kts 211°
2026-05-05 20:57 -2.20031 -80.97333 331 ft 64 kts 221°
2026-05-05 20:57 -2.20150 -80.97723 227 ft 62 kts 264°
2026-05-05 20:57 -2.20191 -80.98126 63 ft 58 kts 253°
2026-05-05 20:57 -2.20236 -80.98474 21 ft 42 kts 262°
2026-05-05 20:58 -2.20281 -80.98821 49 ft 64 kts 268°
2026-05-05 20:58 -2.20307 -80.99281 221 ft 65 kts 269°
2026-05-05 20:58 -2.20297 -80.99746 394 ft 67 kts 277°
2026-05-05 20:58 -2.20200 -81.00208 551 ft 58 kts 297°
2026-05-05 20:59 -2.19803 -81.00187 336 ft 79 kts 79°
2026-05-05 20:59 -2.20034 -80.99724 215 ft 72 kts 128°
2026-05-05 20:59 -2.20311 -80.99346 98 ft 66 kts 141°
2026-05-05 20:59 -2.20586 -80.99016 21 ft 53 kts 142°
2026-05-05 21:00 -2.20800 -80.98767 21 ft 52 kts 132°
2026-05-05 21:00 -2.21080 -80.98389 97 ft 75 kts 123°
2026-05-05 21:00 -2.21376 -80.98038 23 ft 59 kts 134°
2026-05-05 21:00 -2.21645 -80.97732 73 ft 67 kts 129°
2026-05-05 21:01 -2.21964 -80.97327 211 ft 78 kts 135°
2026-05-05 21:01 -2.22367 -80.97012 179 ft 73 kts 167°
2026-05-05 21:01 -2.22794 -80.96772 81 ft 72 kts 146°
2026-05-05 21:01 -2.23145 -80.96465 33 ft 74 kts 141°
2026-05-05 21:02 -2.23548 -80.96121 225 ft 74 kts 142°
2026-05-05 21:02 -2.23953 -80.95832 409 ft 74 kts 152°
2026-05-05 21:02 -2.24378 -80.95518 601 ft 77 kts 136°
2026-05-05 21:02 -2.24796 -80.95154 771 ft 81 kts 159°
2026-05-05 21:03 -2.25291 -80.94895 980 ft 81 kts 150°
2026-05-05 21:03 -2.25814 -80.94514 1016 ft 100 kts 144°
2026-05-05 21:03 -2.26361 -80.94056 969 ft 106 kts 143°
2026-05-05 21:03 -2.26883 -80.93539 976 ft 104 kts 138°
2026-05-05 21:04 -2.27471 -80.93070 928 ft 107 kts 145°
2026-05-05 21:04 -2.28039 -80.92629 959 ft 104 kts 148°
2026-05-05 21:04 -2.28691 -80.92272 970 ft 101 kts 152°
2026-05-05 21:04 -2.29313 -80.91963 971 ft 103 kts 158°
2026-05-05 21:05 -2.29201 -80.91479 875 ft 108 kts
2026-05-05 21:05 -2.28513 -80.91612 824 ft 95 kts 345°
2026-05-05 21:05 -2.27816 -80.91778 647 ft 102 kts 340°
2026-05-05 21:05 -2.27138 -80.91972 650 ft 108 kts 338°
2026-05-05 21:06 -2.26457 -80.92231 755 ft 96 kts 330°
2026-05-05 21:06 -2.25852 -80.92612 654 ft 105 kts 315°
2026-05-05 21:06 -2.25343 -80.93095 678 ft 101 kts 308°
2026-05-05 21:06 -2.24879 -80.93606 702 ft 98 kts 308°
2026-05-05 21:07 -2.24401 -80.94128 646 ft 103 kts 311°
2026-05-05 21:07 -2.23915 -80.94595 735 ft 94 kts 309°
2026-05-05 21:07 -2.23443 -80.95106 677 ft 100 kts 309°
2026-05-05 21:07 -2.22973 -80.95618 670 ft 100 kts 305°
2026-05-05 21:08 -2.22535 -80.96159 673 ft 99 kts 307°
2026-05-05 21:08 -2.22076 -80.96689 653 ft 100 kts 307°
2026-05-05 21:08 -2.21630 -80.97221 647 ft 99 kts 302°
2026-05-05 21:08 -2.21178 -80.97720 695 ft 86 kts 305°
2026-05-05 21:09 -2.21120 -80.98230 665 ft 79 kts 243°
2026-05-05 21:09 -2.21619 -80.98479 572 ft 86 kts 169°
2026-05-05 21:09 -2.22066 -80.98132 597 ft 85 kts 142°
2026-05-05 21:09 -2.22442 -80.97778 622 ft 65 kts 130°
2026-05-05 21:10 -2.22728 -80.97385 429 ft 66 kts 110°
2026-05-05 21:10 -2.22415 -80.97170 240 ft 63 kts 337°
2026-05-05 21:10 -2.22044 -80.97369 145 ft 61 kts 321°
2026-05-05 21:10 -2.21705 -80.97653 80 ft 59 kts 305°
2026-05-05 21:11 -2.21494 -80.97952 35 ft 64 kts 290°
2026-05-05 21:11 -2.21207 -80.98374 116 ft 80 kts 297°
2026-05-05 21:11 -2.20854 -80.98782 312 ft 77 kts 318°
2026-05-05 21:11 -2.20443 -80.99149 467 ft 82 kts 308°
2026-05-05 21:12 -2.20242 -80.99620 614 ft 84 kts 240°
2026-05-05 21:12 -2.20737 -80.99619 826 ft 73 kts 145°
2026-05-05 21:12 -2.21144 -80.99246 718 ft 87 kts 140°
2026-05-05 21:12 -2.21565 -80.98870 728 ft 86 kts 144°
2026-05-05 21:13 -2.22016 -80.98468 682 ft 89 kts 141°
2026-05-05 21:13 -2.22446 -80.98045 699 ft 76 kts 137°
2026-05-05 21:13 -2.22807 -80.97646 586 ft 74 kts 140°
2026-05-05 21:13 -2.23006 -80.97176 430 ft 83 kts 84°
2026-05-05 21:14 -2.22598 -80.96870 279 ft 78 kts 342°
2026-05-05 21:14 -2.22191 -80.97162 207 ft 68 kts 315°
2026-05-05 21:14 -2.21837 -80.97501 69 ft 71 kts 307°
2026-05-05 21:14 -2.21529 -80.97868 22 ft 64 kts 302°
2026-05-05 21:15 -2.21228 -80.98220 46 ft 76 kts 315°
2026-05-05 21:15 -2.20887 -80.98640 177 ft 78 kts 314°
2026-05-05 21:15 -2.20533 -80.99021 347 ft 75 kts 311°
2026-05-05 21:15 -2.20143 -80.99379 555 ft 72 kts 321°
2026-05-05 21:16 -2.19754 -80.99663 447 ft 68 kts 300°
2026-05-05 21:16 -2.19989 -80.99716 234 ft 83 kts 123°
2026-05-05 21:16 -2.20297 -80.99348 139 ft 68 kts 145°
2026-05-05 21:16 -2.20598 -80.98999 26 ft 59 kts 140°
2026-05-05 21:17 -2.20855 -80.98717 27 ft 61 kts 134°
2026-05-05 21:17 -2.21134 -80.98317 62 ft 82 kts 134°
2026-05-05 21:17 -2.21483 -80.97907 278 ft 77 kts 134°
2026-05-05 21:17 -2.21779 -80.97468 491 ft 75 kts 131°
2026-05-05 21:18 -2.21907 -80.96967 626 ft 87 kts 81°
2026-05-05 21:18 -2.21821 -80.96381 852 ft 86 kts 88°
2026-05-05 21:18 -2.21798 -80.95772 953 ft 99 kts 88°
2026-05-05 21:18 -2.21725 -80.95044 1010 ft 109 kts 85°
2026-05-05 21:19 -2.21647 -80.94332 1107 ft 99 kts 86°
2026-05-05 21:19 -2.21547 -80.93572 947 ft 114 kts 82°
2026-05-05 21:19 -2.21431 -80.92794 983 ft 109 kts 86°
2026-05-05 21:19 -2.21338 -80.92027 973 ft 111 kts 85°
2026-05-05 21:20 -2.21246 -80.91272 994 ft 110 kts 85°
2026-05-05 21:20 -2.21406 -80.90575 961 ft 107 kts 150°
2026-05-05 21:20 -2.22066 -80.90634 992 ft 99 kts 211°
2026-05-05 21:20 -2.22697 -80.90963 994 ft 100 kts 210°
2026-05-05 21:21 -2.23306 -80.91306 997 ft 101 kts 215°
2026-05-05 21:21 -2.23936 -80.91661 949 ft 104 kts 211°
2026-05-05 21:21 -2.24394 -80.92149 800 ft 97 kts 255°
2026-05-05 21:21 -2.24548 -80.92782 647 ft 94 kts 253°
2026-05-05 21:22 -2.24754 -80.93411 647 ft 92 kts 251°
2026-05-05 21:22 -2.24531 -80.93949 647 ft 96 kts 316°
2026-05-05 21:22 -2.24063 -80.94411 672 ft 95 kts 310°
2026-05-05 21:22 -2.23594 -80.94908 696 ft 96 kts 312°
2026-05-05 21:23 -2.23123 -80.95410 709 ft 98 kts 309°
2026-05-05 21:23 -2.22666 -80.95933 682 ft 103 kts 307°
2026-05-05 21:23 -2.22217 -80.96504 655 ft 104 kts 305°
2026-05-05 21:23 -2.21784 -80.97073 632 ft 105 kts 303°
2026-05-05 21:24 -2.21333 -80.97620 682 ft 94 kts 310°
2026-05-05 21:24 -2.21159 -80.98164 653 ft 82 kts 257°
2026-05-05 21:24 -2.21559 -80.98484 645 ft 82 kts 189°
2026-05-05 21:24 -2.22074 -80.98207 634 ft 83 kts 143°
2026-05-05 21:25 -2.22419 -80.97809 589 ft 76 kts 129°
2026-05-05 21:25 -2.22558 -80.97364 416 ft 73 kts 66°
2026-05-05 21:25 -2.22162 -80.97152 218 ft 65 kts 331°
2026-05-05 21:25 -2.21869 -80.97457 91 ft 60 kts 296°
2026-05-05 21:26 -2.21611 -80.97761 22 ft 50 kts 307°
2026-05-05 21:26 -2.21417 -80.98023 22 ft 54 kts 322°
2026-05-05 21:26 -2.21119 -80.98325 72 ft 66 kts 296°
2026-05-05 21:26 -2.20853 -80.98715 193 ft 68 kts 301°
2026-05-05 21:27 -2.20553 -80.99076 317 ft 68 kts 309°
2026-05-05 21:27 -2.20199 -80.99420 447 ft 72 kts 306°
2026-05-05 21:27 -2.19793 -80.99670 572 ft 82 kts
2026-05-05 21:27 -2.19457 -80.99201 713 ft 84 kts 66°
2026-05-05 21:28 -2.19179 -80.98690 861 ft 83 kts 57°
2026-05-05 21:28 -2.18871 -80.98152 925 ft 93 kts 64°
2026-05-05 21:28 -2.18553 -80.97551 939 ft 103 kts 63°
2026-05-05 21:28 -2.18230 -80.96862 921 ft 111 kts 67°
2026-05-05 21:29 -2.17985 -80.96133 934 ft 111 kts 76°
2026-05-05 21:29 -2.18020 -80.95381 962 ft 110 kts 118°
2026-05-05 21:29 -2.18640 -80.95023 937 ft 104 kts 180°
2026-05-05 21:29 -2.19309 -80.95107 691 ft 97 kts 208°
2026-05-05 21:30 -2.19672 -80.95614 657 ft 93 kts 263°
2026-05-05 21:30 -2.19744 -80.96240 681 ft 94 kts 262°
2026-05-05 21:30 -2.19819 -80.96902 648 ft 97 kts 264°
2026-05-05 21:30 -2.19883 -80.97573 660 ft 96 kts 263°
2026-05-05 21:31 -2.19937 -80.98247 661 ft 96 kts 263°
2026-05-05 21:31 -2.20162 -80.98814 534 ft 96 kts 213°
2026-05-05 21:31 -2.20618 -80.98550 598 ft 85 kts 110°
2026-05-05 21:31 -2.20619 -80.97938 590 ft 82 kts 91°
2026-05-05 21:32 -2.20405 -80.97493 436 ft 72 kts 14°
2026-05-05 21:32 -2.20151 -80.97758 212 ft 60 kts 261°
2026-05-05 21:32 -2.20196 -80.98161 47 ft 58 kts 256°
2026-05-05 21:32 -2.20254 -80.98497 21 ft 42 kts 259°
2026-05-05 21:33 -2.20309 -80.98852 42 ft 64 kts 261°
2026-05-05 21:33 -2.20372 -80.99303 176 ft 69 kts 257°
2026-05-05 21:33 -2.20481 -80.99764 362 ft 66 kts 253°
2026-05-05 21:33 -2.20612 -81.00191 529 ft 66 kts 251°
2026-05-05 21:34 -2.20797 -81.00621 658 ft 70 kts 255°
2026-05-05 21:34 -2.20474 -81.01002 740 ft 83 kts 335°
2026-05-05 21:34 -2.19956 -81.01170 930 ft 77 kts 337°
2026-05-05 21:34 -2.19392 -81.01391 911 ft 95 kts 332°
2026-05-05 21:35 -2.18798 -81.01709 922 ft 95 kts 323°
2026-05-05 21:35 -2.18249 -81.01691 697 ft 118 kts 73°
2026-05-05 21:35 -2.18160 -81.00993 890 ft 90 kts 85°
2026-05-05 21:35 -2.18077 -81.00329 920 ft 100 kts 81°
2026-05-05 21:36 -2.17954 -80.99623 893 ft 100 kts 78°
2026-05-05 21:36 -2.17759 -80.98930 842 ft 105 kts 77°
2026-05-05 21:36 -2.17588 -80.98333 998 ft 96 kts 74°
2026-05-05 21:36 -2.17399 -80.97660 1015 ft 96 kts 72°
2026-05-05 21:37 -2.17242 -80.96992 903 ft 96 kts 97°
2026-05-05 21:37 -2.17633 -80.96493 623 ft 97 kts 163°
2026-05-05 21:37 -2.18225 -80.96371 710 ft 81 kts 176°
2026-05-05 21:37 -2.18807 -80.96320 668 ft 78 kts 182°
2026-05-05 21:38 -2.19356 -80.96299 650 ft 81 kts 184°
2026-05-05 21:38 -2.19815 -80.96408 580 ft 63 kts 236°
2026-05-05 21:38 -2.19954 -80.96824 446 ft 57 kts 254°
2026-05-05 21:38 -2.20037 -80.97205 379 ft 58 kts 254°
2026-05-05 21:39 -2.20115 -80.97596 269 ft 56 kts 258°
2026-05-05 21:39 -2.20173 -80.97983 133 ft 56 kts 258°
2026-05-05 21:39 -2.20223 -80.98357 24 ft 46 kts 256°
2026-05-05 21:39 -2.20288 -80.98715 63 ft 59 kts 252°
2026-05-05 21:40 -2.20383 -80.99145 160 ft 65 kts 254°
2026-05-05 21:40 -2.20487 -80.99623 251 ft 68 kts 253°
2026-05-05 21:40 -2.20593 -81.00075 389 ft 65 kts 257°
2026-05-05 21:40 -2.20721 -81.00550 462 ft 75 kts 250°
2026-05-05 21:41 -2.20894 -81.01038 616 ft 74 kts 242°
2026-05-05 21:41 -2.21110 -81.01472 795 ft 70 kts 238°
2026-05-05 21:41 -2.21572 -81.01650 880 ft 84 kts 165°
2026-05-05 21:41 -2.22026 -81.01234 968 ft 91 kts 139°
2026-05-05 21:42 -2.22492 -81.00739 984 ft 93 kts 135°
2026-05-05 21:42 -2.22970 -81.00284 978 ft 97 kts 141°
2026-05-05 21:42 -2.23445 -80.99814 1034 ft 94 kts 138°
2026-05-05 21:42 -2.23924 -80.99348 1019 ft 99 kts 139°
2026-05-05 21:43 -2.24424 -80.98869 1021 ft 97 kts 142°
2026-05-05 21:43 -2.24938 -80.98423 1022 ft 99 kts 138°
2026-05-05 21:43 -2.25250 -80.97826 840 ft 113 kts 85°
2026-05-05 21:43 -2.24746 -80.97259 725 ft 95 kts 26°
2026-05-05 21:44 -2.24178 -80.96929 696 ft 93 kts 28°
2026-05-05 21:44 -2.23634 -80.96604 670 ft 92 kts 28°
2026-05-05 21:44 -2.23074 -80.96419 546 ft 83 kts 346°
2026-05-05 21:44 -2.22557 -80.96669 376 ft 78 kts 314°
2026-05-05 21:45 -2.22189 -80.97060 266 ft 72 kts 304°
2026-05-05 21:45 -2.21866 -80.97452 120 ft 74 kts 305°
2026-05-05 21:45 -2.21547 -80.97837 24 ft 71 kts 305°
2026-05-05 21:45 -2.21300 -80.98140 22 ft 26 kts 322°
2026-05-05 21:46 -2.21280 -80.98160 21 ft 0 kts 299°